Погода в Мангейме

Германия     49°28′32″N   8°28′44″E
темп.,
°C
ветер,
м/с
пор.,
м/с
влажн.,
%
обл.,
%
осадки,
мм/ч
давл.,
гПа
погр.,
м
1 августа, вс
вс123:00+19зсз2663100 0.1 1010234
02:00+18сз1274100 0.1 1010148
05:00+16сз1183100 0.8 101048
08:00+16сз1380100 1.3 1010231
11:00+21зсз3453100 0.1 10101247
14:00+23з344289 0.1 10101938
17:00+23з4537100 0.0 10102165
20:00+21з464899 0.0 10101312
2 августа, пн
пн223:00+18з2767100 0.0 1012475
02:00+16зюз267113 0.1 1013412
05:00+15ююз13776 0.0 1014160
08:00+16юз137050 0.0 1015412
11:00+18юз346063 0.0 1016856
14:00+22з355382 1.0 10151592
17:00+22з45575 1.9 10141393
20:00+19зсз25795 3.9 1014217
3 августа, вт
вт323:00+17ююв118414 0.7 101527
02:00+15ю24905 0.7 1015132
05:00+14ююв2694100 0.4 1015201
08:00+15ююв3788100 0.4 1015292
11:00+17юз3981100 0.9 1015562
14:00+16ююв3886100 3.1 1014587
17:00+20зюз35685 1.2 10131099
20:00+18зюз118096 2.7 101327
4 августа, ср
ср423:00+16зюз1185100 0.7 101423
02:00+16ююз1184100 1.3 101412
05:00+16ююз2386100 0.7 101371
08:00+14юз1394100 2.9 1014203
11:00+15ю2393100 0.7 1014282
14:00+16ююз2486100 1.0 1015556
17:00+17юз2475100 0.3 1015815
20:00+16зсз248673 0.9 1015335
5 августа, чт
чт523:00+14ююз01915 0.1 101611
02:00+13ю1193100 0.1 101611
05:00+13ю11957 0.0 101415
08:00+14юв1191100 0.1 1015102
11:00+18ю2368100 0.0 1014763
14:00+17ю3571100 0.0 1013598
17:00+19юз356530 0.0 1012886
20:00+20юз35661 0.1 1011802